Location: アルンシュタイン
(50.0000°N, 10.0000°E)
Time: 21:47:26
(UTC+02:00)

Tiros 1 despin weight - Pass Details

Date: 19 September 2024
Orbit: 572 x 614 km, 48.2° (Epoch: 12 October)

Event Time Altitude Azimuth Distance (km) Brightness Sun altitude
Exits shadow 04:49:42 55° 208° (SSW) 737 ? -21.1°
Maximum altitude 04:50:19 62° 168° (SSE) 692 ? -21.0°
Drops below altitude 10° 04:54:49 10° 88° (E) 1,980 ? -20.4°
Sets 04:57:09 0° 85° (E) 2,886 ? -20.1°
